Weather WX

World > North America > United States > Minnesota

Saint Augusta, Minnesota Regional Weather

Lat: 45.48N, Lon: 94.15W
Wx Zone: MNZ049
Warning FLW WEATHER ALERT - (More Info. Click Here) Warning
Feedback

Saint Augusta, MN Regional Weather

Expires:201906241800;;009879
ASUS43 KMPX 241710
RWRMN 
WEATHER ROUNDUP FOR MINNESOTA
NATIONAL WEATHER SERVICE TWIN CITIES/CHANHASSEN MN
1200 PM CDT MON JUN 24 2019


NOTE: "FAIR" INDICATES FEW OR NO CLOUDS BELOW 12,000 FEET WITH NO
SIGNIFICANT WEATHER AND/OR OBSTRUCTIONS TO VISIBILITY. N/A MEANS
CURRENT SKY AND/OR WEATHER CONDITIONS ARE NOT AVAILABLE.


MNZ033>034-036-042>043-049>051-058-059-241800-
   Central Minnesota     
  
CITY           SKY/WX    TMP DP  RH WIND       PRES   REMARKS
ST CLOUD       CLOUDY    65  58  78 W9        29.63R                  
SAUK CENTRE    FAIR      65  56  72 W9        29.65S                  
PAYNESVILLE    PTSUNNY   68  59  73 W8        29.66R                  
AITKIN         CLOUDY    63  55  77 W8        29.58S                  
PINE RIVER     DRIZZLE   61  57  88 NW6       29.66R                  
BRAINERD       CLOUDY    67  56  67 W12       29.62S                  
STAPLES        FAIR      64  55  72 W9        29.63S                  
LONG PRAIRIE   CLOUDY    64  55  72 NW7       29.65S                  
LITTLE FALLS   RAIN      63  61  94 W7        29.64R                  
LITCHFIELD     FAIR      72  63  73 W10       29.65S                  
BUFFALO        CLOUDY    67  56  67 MISG      29.64S                  
MAPLE LAKE       N/A     68  60  74 NW13      29.64S                  
HUTCHINSON     CLOUDY    69  59  70 W12       29.66S                  
$$

SKY/WX - Weather  TMP - Temperature  DP - Dew Point  RH - Relative Humidity
WIND - Wind Direction/Speed PRES - Barometric Pressure VSB - Visibility
WCI - Wind Chill Index E13G22 Wind - East Wind 13 mph/Gusts of 22 mph